| time (UTC) | temp F | wind direction | speed MPH | gust MPH | rain 1hr in | rain 24hr in | rain mn in | humidity % | barometer mb |
| 20260506101310 | 62 | 90 | 2.0 | 9.0 | 0.00 | 0.06 | 0.00 | 53 | 1004.4 |
| 20260506100310 | 62 | 0 | 0.0 | 6.0 | 0.00 | 0.06 | 0.00 | 59 | 1004.4 |
| 20260506095310 | 61 | 202 | 2.0 | 9.0 | 0.00 | 0.06 | 0.00 | 63 | 1004.3 |
| 20260506094310 | 63 | 90 | 0.0 | 3.0 | 0.00 | 0.06 | 0.00 | 60 | 1004.5 |
| 20260506093310 | 63 | 360 | 0.0 | 4.0 | 0.00 | 0.06 | 0.00 | 59 | 1004.5 |
| 20260506092310 | 60 | 202 | 1.0 | 6.0 | 0.00 | 0.06 | 0.00 | 64 | 1004.3 |
| 20260506091309 | 60 | 0 | 0.0 | 5.0 | 0.00 | 0.06 | 0.00 | 66 | 1004.4 |
| 20260506090309 | 61 | 180 | 2.0 | 6.0 | 0.00 | 0.06 | 0.00 | 66 | 1004.6 |
| 20260506085309 | 58 | 180 | 0.0 | 6.0 | 0.00 | 0.06 | 0.00 | 72 | 1004.3 |
| 20260506084309 | 58 | 135 | 1.0 | 9.0 | 0.00 | 0.06 | 0.00 | 70 | 1004.2 |
| 20260506082309 | 58 | 292 | 3.0 | 6.0 | 0.00 | 0.06 | 0.00 | 67 | 1004.4 |
| 20260506081314 | 57 | 180 | 2.0 | 6.0 | 0.00 | 0.06 | 0.00 | 70 | 1004.1 |
| 20260506080314 | 58 | 0 | 0.0 | 3.0 | 0.00 | 0.06 | 0.00 | 69 | 1004.9 |
| 20260506073313 | 53 | 0 | 0.0 | 4.0 | 0.00 | 0.06 | 0.00 | 83 | 1004.7 |
| 20260506072313 | 54 | 202 | 1.0 | 3.0 | 0.00 | 0.06 | 0.00 | 83 | 1004.9 |
| 20260506071313 | 53 | 202 | 2.0 | 6.0 | 0.00 | 0.06 | 0.00 | 83 | 1004.6 |
| 20260506070313 | 53 | 0 | 0.0 | 4.0 | 0.00 | 0.06 | 0.00 | 85 | 1004.8 |
| 20260506062315 | 54 | 180 | 1.0 | 4.0 | 0.00 | 0.06 | 0.00 | 86 | 1005.2 |
| 20260506061312 | 54 | 0 | 0.0 | 0.0 | 0.00 | 0.06 | 0.00 | 85 | 1005.1 |
| 20260506060312 | 51 | 0 | 0.0 | 0.0 | 0.00 | 0.06 | 0.00 | 90 | 1004.7 |
| 20260506051312 | 51 | 0 | 0.0 | 0.0 | 0.00 | 0.06 | 0.00 | 94 | 1005.2 |
| 20260506050311 | 51 | 0 | 0.0 | 0.0 | 0.00 | 0.06 | 0.00 | 95 | 1005.3 |
| 20260506044311 | 51 | 202 | 3.0 | 5.0 | 0.00 | 0.06 | 0.00 | 96 | 1005.5 |
| 20260506043311 | 51 | 180 | 0.0 | 2.0 | 0.00 | 0.06 | 0.00 | 96 | 1005.8 |
| 20260506042311 | 51 | 0 | 0.0 | 0.0 | 0.00 | 0.06 | 0.00 | 96 | 1005.6 |
| 20260506041311 | 50 | 0 | 0.0 | 3.0 | 0.00 | 0.06 | 0.00 | 96 | 1006.0 |
| 20260506040310 | 50 | 0 | 0.0 | 0.0 | 0.00 | 0.06 | 0.00 | 96 | 1005.9 |
| 20260506035310 | 50 | 157 | 2.0 | 2.0 | 0.00 | 0.06 | 0.00 | 96 | 1006.1 |
| 20260506034310 | 50 | 0 | 0.0 | 0.0 | 0.00 | 0.06 | 0.00 | 96 | 1005.8 |
| 20260506033310 | 50 | 0 | 0.0 | 0.0 | 0.00 | 0.06 | 0.00 | 96 | 1005.5 |
| 20260506032310 | 50 | 0 | 0.0 | 0.0 | 0.00 | 0.06 | 0.00 | 96 | 1005.7 |
| 20260506030310 | 51 | 0 | 0.0 | 4.0 | 0.00 | 0.06 | 0.00 | 96 | 1005.8 |
| 20260506025309 | 51 | 180 | 1.0 | 4.0 | 0.00 | 0.06 | 0.00 | 96 | 1005.8 |
| 20260506024309 | 51 | 0 | 0.0 | 5.0 | 0.00 | 0.06 | 0.00 | 96 | 1005.7 |
| 20260506023309 | 51 | 0 | 0.0 | 0.0 | 0.00 | 0.06 | 0.00 | 95 | 1005.7 |
| 20260506022309 | 51 | 0 | 0.0 | 0.0 | 0.00 | 0.06 | 0.00 | 96 | 1005.8 |
| 20260506021309 | 51 | 0 | 0.0 | 3.0 | 0.00 | 0.06 | 0.00 | 96 | 1005.8 |
| 20260506020309 | 51 | 0 | 0.0 | 0.0 | 0.00 | 0.06 | 0.00 | 95 | 1006.0 |
| 20260506015314 | 51 | 180 | 3.0 | 4.0 | 0.00 | 0.06 | 0.00 | 94 | 1005.8 |
| 20260506014314 | 51 | 0 | 0.0 | 0.0 | 0.00 | 0.06 | 0.00 | 94 | 1005.8 |
| 20260506013313 | 51 | 0 | 0.0 | 0.0 | 0.00 | 0.06 | 0.00 | 95 | 1005.7 |
| 20260506004313 | 52 | 225 | 1.0 | 5.0 | 0.00 | 0.06 | 0.00 | 93 | 1006.1 |
| 20260506003313 | 52 | 0 | 0.0 | 4.0 | 0.00 | 0.06 | 0.00 | 93 | 1006.3 |
| 20260506001312 | 52 | 0 | 0.0 | 0.0 | 0.00 | 0.06 | 0.00 | 92 | 1006.2 |
| 20260506000312 | 52 | 0 | 0.0 | 2.0 | 0.00 | 0.06 | 0.00 | 92 | 1006.2 |
| 20260505235312 | 53 | 292 | 1.0 | 6.0 | 0.00 | 0.06 | 0.00 | 92 | 1006.4 |
| 20260505234312 | 53 | 247 | 1.0 | 6.0 | 0.00 | 0.06 | 0.00 | 91 | 1006.4 |
| 20260505233312 | 53 | 315 | 1.0 | 4.0 | 0.00 | 0.06 | 0.00 | 90 | 1006.4 |
| 20260505231315 | 53 | 0 | 0.0 | 0.0 | 0.00 | 0.06 | 0.00 | 90 | 1006.2 |
| 20260505230312 | 53 | 0 | 0.0 | 4.0 | 0.00 | 0.06 | 0.00 | 90 | 1006.2 |
| 20260505225311 | 53 | 0 | 0.0 | 3.0 | 0.00 | 0.06 | 0.00 | 90 | 1006.0 |
| 20260505223311 | 52 | 0 | 0.0 | 2.0 | 0.00 | 0.06 | 0.00 | 91 | 1005.6 |
| 20260505222311 | 52 | 315 | 1.0 | 3.0 | 0.00 | 0.06 | 0.00 | 93 | 1005.6 |
| 20260505221311 | 51 | 360 | 1.0 | 4.0 | 0.00 | 0.06 | 0.00 | 94 | 1005.0 |
| 20260505214310 | 52 | 360 | 3.0 | 5.0 | 0.00 | 0.06 | 0.06 | 93 | 1004.9 |
| 20260505213310 | 52 | 22 | 2.0 | 4.0 | 0.00 | 0.06 | 0.06 | 92 | 1004.7 |
| 20260505212310 | 52 | 22 | 3.0 | 4.0 | 0.00 | 0.06 | 0.06 | 92 | 1004.5 |
| 20260505211310 | 52 | 360 | 4.0 | 5.0 | 0.01 | 0.06 | 0.06 | 91 | 1004.5 |
| 20260505210310 | 53 | 45 | 4.0 | 7.0 | 0.02 | 0.06 | 0.06 | 91 | 1004.4 |
| 20260505205310 | 53 | 22 | 2.0 | 5.0 | 0.04 | 0.06 | 0.06 | 91 | 1004.4 |
| 20260505204310 | 53 | 45 | 5.0 | 8.0 | 0.06 | 0.06 | 0.06 | 90 | 1004.4 |
| 20260505203309 | 54 | 22 | 5.0 | 9.0 | 0.06 | 0.06 | 0.06 | 90 | 1004.3 |
| 20260505202309 | 54 | 45 | 5.0 | 7.0 | 0.06 | 0.06 | 0.06 | 90 | 1004.4 |
| 20260505201309 | 54 | 45 | 3.0 | 4.0 | 0.05 | 0.05 | 0.05 | 89 | 1004.5 |
| 20260505200309 | 55 | 0 | 0.0 | 0.0 | 0.03 | 0.03 | 0.03 | 86 | 1004.6 |
| 20260505195309 | 57 | 0 | 0.0 | 0.0 | 0.02 | 0.02 | 0.02 | 78 | 1004.8 |
| 20260505194314 | 57 | 0 | 0.0 | 0.0 | 0.00 | 0.00 | 0.00 | 75 | 1004.4 |
| 20260505193314 | 58 | 292 | 0.0 | 5.0 | 0.00 | 0.00 | 0.00 | 73 | 1004.3 |
| 20260505192314 | 58 | 202 | 6.0 | 9.0 | 0.00 | 0.00 | 0.00 | 74 | 1004.3 |
| 20260505191313 | 58 | 0 | 0.0 | 2.0 | 0.00 | 0.00 | 0.00 | 73 | 1004.3 |
| 20260505190313 | 59 | 180 | 1.0 | 8.0 | 0.00 | 0.00 | 0.00 | 71 | 1004.0 |
| 20260505185313 | 60 | 180 | 3.0 | 7.0 | 0.00 | 0.00 | 0.00 | 67 | 1004.2 |
| 20260505184313 | 60 | 180 | 1.0 | 9.0 | 0.00 | 0.00 | 0.00 | 64 | 1003.7 |
| 20260505181312 | 62 | 180 | 1.0 | 12.0 | 0.00 | 0.00 | 0.00 | 52 | 1002.2 |
| 20260505180313 | 62 | 0 | 0.0 | 0.0 | 0.00 | 0.00 | 0.00 | 53 | 1002.1 |
| 20260505175312 | 62 | 0 | 0.0 | 0.0 | 0.00 | 0.00 | 0.00 | 51 | 1001.9 |
| 20260505173312 | 66 | 0 | 0.0 | 0.0 | 0.00 | 0.00 | 0.00 | 45 | 1002.2 |
| 20260505172312 | 67 | 0 | 0.0 | 3.0 | 0.00 | 0.00 | 0.00 | 40 | 1002.1 |
| 20260505171312 | 67 | 157 | 0.0 | 6.0 | 0.00 | 0.00 | 0.00 | 40 | 1001.8 |
| 20260505170312 | 68 | 0 | 0.0 | 4.0 | 0.00 | 0.00 | 0.00 | 38 | 1001.9 |
| 20260505165311 | 69 | 270 | 1.0 | 3.0 | 0.00 | 0.00 | 0.00 | 36 | 1002.1 |
| 20260505163311 | 71 | 180 | 2.0 | 5.0 | 0.00 | 0.00 | 0.00 | 33 | 1002.3 |
| 20260505162311 | 70 | 180 | 2.0 | 6.0 | 0.00 | 0.00 | 0.00 | 32 | 1002.3 |
| 20260505153310 | 71 | 270 | 2.0 | 7.0 | 0.00 | 0.00 | 0.00 | 32 | 1002.7 |
| 20260505151310 | 72 | 202 | 7.0 | 13.0 | 0.00 | 0.00 | 0.00 | 27 | 1002.7 |
| 20260505150310 | 72 | 247 | 1.0 | 4.0 | 0.00 | 0.00 | 0.00 | 28 | 1002.7 |
| 20260505140309 | 73 | 202 | 3.0 | 7.0 | 0.00 | 0.00 | 0.00 | 30 | 1003.7 |
| 20260505124314 | 71 | 180 | 3.0 | 9.0 | 0.00 | 0.00 | 0.00 | 37 | 1004.6 |
| 20260505123313 | 72 | 292 | 2.0 | 9.0 | 0.00 | 0.00 | 0.00 | 41 | 1005.0 |
| 20260505122313 | 71 | 180 | 2.0 | 8.0 | 0.00 | 0.00 | 0.00 | 39 | 1005.0 |
| 20260505121313 | 71 | 202 | 1.0 | 7.0 | 0.00 | 0.00 | 0.00 | 39 | 1005.1 |
| 20260505115312 | 71 | 202 | 5.0 | 10.0 | 0.00 | 0.00 | 0.00 | 42 | 1004.9 |
| 20260505114312 | 71 | 180 | 3.0 | 6.0 | 0.00 | 0.00 | 0.00 | 43 | 1005.0 |
| 20260505113312 | 71 | 202 | 0.0 | 5.0 | 0.00 | 0.00 | 0.00 | 38 | 1005.2 |
| 20260505112312 | 70 | 180 | 1.0 | 7.0 | 0.00 | 0.00 | 0.00 | 40 | 1005.1 |
| 20260505110312 | 71 | 270 | 2.0 | 6.0 | 0.00 | 0.00 | 0.00 | 47 | 1005.7 |